| time (UTC) | temp C | wind direction | speed KPH | gust KPH | rain 1hr cm | rain 24hr cm | rain mn cm | humidity % | barometer mb |
| 20260508025506 | 9 | 252 | 0.0 | 0.0 | 0.00 | 0.23 | 0.20 | 43 | 1007.2 |
| 20260508025006 | 9 | 252 | 0.0 | 1.6 | 0.00 | 0.23 | 0.20 | 43 | 1007.2 |
| 20260508024520 | 9 | 252 | 0.0 | 1.6 | 0.00 | 0.23 | 0.20 | 42 | 1007.1 |
| 20260508024006 | 9 | 36 | 0.0 | 4.8 | 0.00 | 0.23 | 0.20 | 43 | 1007.1 |
| 20260508023509 | 10 | 289 | 0.0 | 4.8 | 0.00 | 0.23 | 0.20 | 42 | 1007.1 |
| 20260508023036 | 10 | 333 | 0.0 | 4.8 | 0.00 | 0.23 | 0.20 | 42 | 1007.0 |
| 20260508022507 | 10 | 288 | 0.0 | 4.8 | 0.00 | 0.23 | 0.20 | 41 | 1007.0 |
| 20260508022009 | 10 | 294 | 0.0 | 6.4 | 0.00 | 0.23 | 0.20 | 41 | 1006.9 |
| 20260508021525 | 10 | 289 | 0.0 | 6.4 | 0.00 | 0.23 | 0.20 | 41 | 1006.9 |
| 20260508021010 | 10 | 297 | 1.6 | 4.8 | 0.00 | 0.23 | 0.20 | 40 | 1006.9 |
| 20260508020514 | 10 | 301 | 1.6 | 6.4 | 0.00 | 0.23 | 0.20 | 40 | 1006.9 |
| 20260508020026 | 10 | 352 | 1.6 | 8.0 | 0.00 | 0.23 | 0.20 | 40 | 1006.8 |
| 20260508015510 | 10 | 359 | 3.2 | 11.3 | 0.00 | 0.23 | 0.20 | 39 | 1006.8 |
| 20260508015007 | 10 | 353 | 1.6 | 11.3 | 0.00 | 0.23 | 0.20 | 40 | 1006.8 |
| 20260508014512 | 11 | 288 | 0.0 | 8.0 | 0.00 | 0.23 | 0.20 | 39 | 1006.7 |
| 20260508014007 | 11 | 327 | 3.2 | 8.0 | 0.00 | 0.23 | 0.20 | 38 | 1006.6 |
| 20260508013508 | 11 | 21 | 3.2 | 11.3 | 0.00 | 0.23 | 0.20 | 38 | 1006.5 |
| 20260508013020 | 11 | 276 | 3.2 | 11.3 | 0.00 | 0.23 | 0.20 | 38 | 1006.6 |
| 20260508012510 | 11 | 11 | 1.6 | 4.8 | 0.00 | 0.23 | 0.20 | 38 | 1006.4 |
| 20260508012007 | 11 | 326 | 1.6 | 3.2 | 0.00 | 0.23 | 0.20 | 36 | 1006.2 |
| 20260508011525 | 11 | 5 | 1.6 | 8.0 | 0.00 | 0.25 | 0.20 | 36 | 1006.2 |
| 20260508011008 | 11 | 280 | 1.6 | 8.0 | 0.00 | 0.25 | 0.20 | 35 | 1006.1 |
| 20260508010510 | 11 | 264 | 3.2 | 8.0 | 0.00 | 0.28 | 0.20 | 36 | 1006.1 |
| 20260508010037 | 11 | 275 | 1.6 | 3.2 | 0.00 | 0.28 | 0.20 | 36 | 1006.0 |
| 20260508005509 | 11 | 271 | 0.0 | 6.4 | 0.00 | 0.28 | 0.20 | 37 | 1006.0 |
| 20260508005013 | 12 | 13 | 0.0 | 6.4 | 0.00 | 0.28 | 0.20 | 37 | 1005.8 |
| 20260508004528 | 12 | 359 | 1.6 | 4.8 | 0.00 | 0.28 | 0.20 | 36 | 1005.7 |
| 20260508004012 | 12 | 343 | 1.6 | 4.8 | 0.00 | 0.28 | 0.20 | 35 | 1005.6 |
| 20260508003510 | 12 | 2 | 0.0 | 3.2 | 0.00 | 0.28 | 0.20 | 36 | 1005.6 |
| 20260508003020 | 12 | 307 | 0.0 | 3.2 | 0.00 | 0.28 | 0.20 | 35 | 1005.5 |
| 20260508002508 | 12 | 354 | 0.0 | 4.8 | 0.00 | 0.28 | 0.20 | 35 | 1005.3 |
| 20260508002011 | 12 | 354 | 0.0 | 6.4 | 0.00 | 0.28 | 0.20 | 34 | 1005.2 |
| 20260508001529 | 12 | 276 | 1.6 | 6.4 | 0.00 | 0.28 | 0.20 | 33 | 1005.2 |
| 20260508001007 | 13 | 250 | 0.0 | 6.4 | 0.00 | 0.28 | 0.20 | 34 | 1005.3 |
| 20260508000508 | 13 | 291 | 1.6 | 3.2 | 0.00 | 0.28 | 0.20 | 33 | 1005.4 |
| 20260508000025 | 13 | 321 | 0.0 | 3.2 | 0.00 | 0.28 | 0.20 | 34 | 1005.2 |
| 20260507235514 | 13 | 324 | 0.0 | 3.2 | 0.00 | 0.28 | 0.20 | 33 | 1005.3 |
| 20260507235010 | 13 | 322 | 0.0 | 1.6 | 0.00 | 0.28 | 0.20 | 34 | 1005.1 |
| 20260507234534 | 13 | 337 | 0.0 | 3.2 | 0.00 | 0.28 | 0.20 | 34 | 1005.1 |
| 20260507234008 | 13 | 191 | 0.0 | 3.2 | 0.00 | 0.28 | 0.20 | 34 | 1005.1 |
| 20260507233508 | 13 | 88 | 0.0 | 4.8 | 0.00 | 0.28 | 0.20 | 35 | 1004.9 |
| 20260507233028 | 13 | 359 | 0.0 | 4.8 | 0.00 | 0.28 | 0.20 | 34 | 1004.9 |
| 20260507232511 | 13 | 240 | 0.0 | 1.6 | 0.00 | 0.28 | 0.20 | 34 | 1004.9 |
| 20260507232012 | 14 | 240 | 0.0 | 1.6 | 0.00 | 0.28 | 0.20 | 34 | 1004.8 |
| 20260507231518 | 14 | 224 | 0.0 | 6.4 | 0.00 | 0.28 | 0.20 | 35 | 1004.7 |
| 20260507231007 | 14 | 172 | 0.0 | 6.4 | 0.00 | 0.28 | 0.20 | 33 | 1004.7 |
| 20260507230506 | 14 | 315 | 1.6 | 6.4 | 0.00 | 0.28 | 0.20 | 32 | 1004.6 |
| 20260507230024 | 14 | 332 | 0.0 | 6.4 | 0.00 | 0.28 | 0.20 | 32 | 1004.6 |
| 20260507225510 | 14 | 248 | 0.0 | 6.4 | 0.00 | 0.28 | 0.20 | 31 | 1004.5 |
| 20260507225009 | 15 | 352 | 0.0 | 8.0 | 0.00 | 0.28 | 0.20 | 33 | 1004.5 |
| 20260507224538 | 15 | 40 | 0.0 | 11.3 | 0.00 | 0.28 | 0.20 | 31 | 1004.5 |
| 20260507224008 | 15 | 264 | 3.2 | 11.3 | 0.00 | 0.28 | 0.20 | 32 | 1004.4 |
| 20260507223509 | 15 | 256 | 4.8 | 11.3 | 0.00 | 0.28 | 0.20 | 30 | 1004.2 |
| 20260507223028 | 15 | 27 | 0.0 | 6.4 | 0.00 | 0.28 | 0.20 | 31 | 1004.2 |
| 20260507222511 | 15 | 9 | 1.6 | 8.0 | 0.00 | 0.28 | 0.20 | 32 | 1004.1 |
| 20260507222010 | 15 | 39 | 3.2 | 8.0 | 0.00 | 0.28 | 0.20 | 30 | 1004.0 |
| 20260507221536 | 15 | 301 | 1.6 | 8.0 | 0.00 | 0.28 | 0.20 | 31 | 1004.0 |
| 20260507221007 | 15 | 232 | 1.6 | 14.5 | 0.00 | 0.28 | 0.20 | 31 | 1004.0 |
| 20260507220514 | 15 | 242 | 1.6 | 14.5 | 0.00 | 0.28 | 0.20 | 33 | 1004.0 |
| 20260507220024 | 15 | 333 | 0.0 | 9.7 | 0.00 | 0.28 | 0.20 | 32 | 1004.1 |
| 20260507215510 | 15 | 248 | 0.0 | 9.7 | 0.00 | 0.28 | 0.20 | 31 | 1004.0 |
| 20260507215007 | 15 | 323 | 0.0 | 11.3 | 0.00 | 0.30 | 0.20 | 31 | 1003.9 |
| 20260507214527 | 15 | 238 | 1.6 | 11.3 | 0.00 | 0.30 | 0.20 | 29 | 1003.9 |
| 20260507214009 | 16 | 328 | 3.2 | 8.0 | 0.00 | 0.30 | 0.20 | 31 | 1004.0 |
| 20260507213509 | 16 | 19 | 1.6 | 4.8 | 0.00 | 0.33 | 0.20 | 30 | 1004.0 |
| 20260507213031 | 16 | 241 | 1.6 | 4.8 | 0.00 | 0.33 | 0.20 | 31 | 1003.9 |
| 20260507212510 | 16 | 127 | 0.0 | 6.4 | 0.00 | 0.36 | 0.20 | 30 | 1003.8 |
| 20260507212005 | 16 | 68 | 0.0 | 9.7 | 0.00 | 0.36 | 0.20 | 30 | 1003.9 |
| 20260507211512 | 16 | 199 | 1.6 | 11.3 | 0.00 | 0.38 | 0.20 | 31 | 1003.9 |
| 20260507211006 | 16 | 24 | 3.2 | 11.3 | 0.00 | 0.38 | 0.20 | 28 | 1003.9 |
| 20260507210512 | 16 | 3 | 0.0 | 11.3 | 0.00 | 0.41 | 0.20 | 30 | 1003.8 |
| 20260507210040 | 16 | 252 | 1.6 | 6.4 | 0.00 | 0.41 | 0.20 | 33 | 1003.8 |
| 20260507205514 | 16 | 297 | 0.0 | 8.0 | 0.00 | 0.43 | 0.20 | 30 | 1003.7 |
| 20260507205007 | 16 | 242 | 3.2 | 8.0 | 0.00 | 0.46 | 0.20 | 32 | 1003.8 |
| 20260507204522 | 16 | 41 | 1.6 | 9.7 | 0.00 | 0.48 | 0.20 | 30 | 1003.7 |
| 20260507204008 | 16 | 326 | 0.0 | 9.7 | 0.00 | 0.51 | 0.20 | 31 | 1003.6 |
| 20260507203509 | 16 | 226 | 1.6 | 14.5 | 0.00 | 0.51 | 0.20 | 30 | 1003.7 |
| 20260507203026 | 16 | 345 | 6.4 | 14.5 | 0.00 | 0.51 | 0.20 | 30 | 1003.6 |
| 20260507202512 | 16 | 335 | 6.4 | 12.9 | 0.00 | 0.53 | 0.20 | 29 | 1003.6 |
| 20260507202013 | 16 | 269 | 3.2 | 14.5 | 0.00 | 0.53 | 0.20 | 30 | 1003.6 |
| 20260507201534 | 17 | 267 | 4.8 | 14.5 | 0.00 | 0.53 | 0.20 | 30 | 1003.6 |
| 20260507201012 | 17 | 264 | 3.2 | 11.3 | 0.00 | 0.53 | 0.20 | 31 | 1003.8 |
| 20260507200507 | 17 | 13 | 3.2 | 11.3 | 0.00 | 0.53 | 0.20 | 30 | 1003.6 |
| 20260507200022 | 17 | 319 | 1.6 | 17.7 | 0.00 | 0.56 | 0.20 | 30 | 1003.6 |
| 20260507195506 | 17 | 305 | 4.8 | 17.7 | 0.00 | 0.56 | 0.20 | 31 | 1003.8 |
| 20260507195012 | 17 | 292 | 4.8 | 11.3 | 0.00 | 0.56 | 0.20 | 31 | 1003.8 |
| 20260507194520 | 17 | 246 | 1.6 | 12.9 | 0.00 | 0.58 | 0.20 | 31 | 1003.8 |
| 20260507194008 | 17 | 186 | 3.2 | 16.1 | 0.00 | 0.66 | 0.20 | 31 | 1003.6 |
| 20260507193517 | 17 | 349 | 4.8 | 16.1 | 0.00 | 0.69 | 0.20 | 33 | 1003.7 |
| 20260507193036 | 17 | 294 | 4.8 | 9.7 | 0.00 | 0.74 | 0.20 | 35 | 1003.6 |
| 20260507192510 | 17 | 304 | 4.8 | 9.7 | 0.00 | 0.74 | 0.20 | 31 | 1003.8 |
| 20260507192010 | 16 | 328 | 3.2 | 9.7 | 0.00 | 0.76 | 0.20 | 35 | 1003.8 |
| 20260507191529 | 16 | 300 | 1.6 | 14.5 | 0.00 | 0.76 | 0.20 | 33 | 1003.9 |
| 20260507191010 | 16 | 354 | 3.2 | 14.5 | 0.00 | 0.79 | 0.20 | 32 | 1004.0 |
| 20260507190509 | 17 | 6 | 4.8 | 14.5 | 0.00 | 0.79 | 0.20 | 29 | 1004.0 |
| 20260507190033 | 17 | 266 | 1.6 | 12.9 | 0.00 | 0.81 | 0.20 | 33 | 1003.9 |
| 20260507185507 | 17 | 309 | 3.2 | 12.9 | 0.00 | 0.81 | 0.20 | 33 | 1004.0 |
| 20260507185007 | 17 | 264 | 1.6 | 11.3 | 0.00 | 0.84 | 0.20 | 34 | 1004.1 |
| 20260507184516 | 17 | 31 | 4.8 | 11.3 | 0.00 | 0.84 | 0.20 | 32 | 1004.0 |
| 20260507184006 | 17 | 144 | 3.2 | 16.1 | 0.00 | 0.84 | 0.20 | 36 | 1004.1 |
| 20260507183510 | 17 | 203 | 8.0 | 16.1 | 0.00 | 0.84 | 0.20 | 34 | 1004.2 |
| 20260507183034 | 17 | 206 | 3.2 | 24.1 | 0.00 | 0.84 | 0.20 | 38 | 1004.1 |
| 20260507182511 | 17 | 244 | 3.2 | 25.7 | 0.00 | 0.84 | 0.20 | 43 | 1004.3 |
| 20260507182011 | 17 | 224 | 9.7 | 25.7 | 0.00 | 0.84 | 0.20 | 39 | 1004.2 |
| 20260507181524 | 17 | 209 | 9.7 | 19.3 | 0.00 | 0.84 | 0.20 | 36 | 1004.0 |
| 20260507181011 | 17 | 250 | 3.2 | 9.7 | 0.00 | 0.84 | 0.20 | 38 | 1004.1 |
| 20260507180506 | 17 | 148 | 3.2 | 9.7 | 0.00 | 0.84 | 0.20 | 39 | 1004.1 |
| 20260507180026 | 16 | 31 | 3.2 | 16.1 | 0.00 | 0.84 | 0.20 | 40 | 1004.4 |
| 20260507175508 | 16 | 283 | 1.6 | 16.1 | 0.00 | 0.84 | 0.20 | 43 | 1004.4 |
| 20260507175012 | 16 | 16 | 3.2 | 16.1 | 0.00 | 0.84 | 0.20 | 41 | 1004.4 |
| 20260507174529 | 16 | 274 | 1.6 | 14.5 | 0.00 | 0.84 | 0.20 | 45 | 1004.5 |
| 20260507174009 | 16 | 21 | 1.6 | 14.5 | 0.00 | 0.84 | 0.20 | 42 | 1004.4 |
| 20260507173509 | 16 | 207 | 1.6 | 11.3 | 0.00 | 0.84 | 0.20 | 44 | 1004.4 |
| 20260507173019 | 15 | 347 | 1.6 | 12.9 | 0.00 | 0.84 | 0.20 | 45 | 1004.6 |
| 20260507172509 | 16 | 231 | 1.6 | 24.1 | 0.00 | 0.84 | 0.20 | 44 | 1004.7 |
| 20260507172011 | 16 | 262 | 8.0 | 24.1 | 0.00 | 0.84 | 0.20 | 41 | 1004.6 |
| 20260507171521 | 16 | 272 | 4.8 | 19.3 | 0.00 | 0.84 | 0.20 | 43 | 1004.5 |
| 20260507171013 | 16 | 233 | 6.4 | 20.9 | 0.00 | 0.84 | 0.20 | 41 | 1004.6 |
| 20260507170508 | 16 | 242 | 8.0 | 20.9 | 0.00 | 0.84 | 0.20 | 41 | 1004.7 |
| 20260507170025 | 17 | 236 | 6.4 | 17.7 | 0.00 | 0.84 | 0.20 | 43 | 1004.6 |
| 20260507165507 | 17 | 260 | 4.8 | 14.5 | 0.00 | 0.84 | 0.20 | 42 | 1004.6 |
| 20260507165007 | 17 | 234 | 3.2 | 24.1 | 0.00 | 0.84 | 0.20 | 43 | 1004.8 |
| 20260507164524 | 16 | 344 | 6.4 | 24.1 | 0.00 | 0.84 | 0.20 | 46 | 1004.8 |
| 20260507164009 | 16 | 62 | 3.2 | 12.9 | 0.00 | 0.84 | 0.20 | 45 | 1004.7 |
| 20260507163512 | 16 | 22 | 3.2 | 16.1 | 0.00 | 0.84 | 0.20 | 48 | 1004.7 |
| 20260507163026 | 16 | 243 | 1.6 | 16.1 | 0.00 | 0.84 | 0.20 | 48 | 1004.8 |
| 20260507162508 | 16 | 245 | 4.8 | 14.5 | 0.00 | 0.84 | 0.20 | 46 | 1005.0 |
| 20260507162009 | 16 | 13 | 1.6 | 11.3 | 0.00 | 0.84 | 0.20 | 46 | 1004.8 |
| 20260507161520 | 15 | 209 | 4.8 | 11.3 | 0.00 | 0.84 | 0.20 | 47 | 1005.1 |
| 20260507161008 | 15 | 8 | 1.6 | 11.3 | 0.00 | 0.84 | 0.20 | 49 | 1005.1 |
| 20260507160509 | 15 | 252 | 3.2 | 11.3 | 0.00 | 0.84 | 0.20 | 48 | 1005.3 |
| 20260507160031 | 15 | 208 | 3.2 | 9.7 | 0.00 | 0.84 | 0.20 | 47 | 1005.4 |
| 20260507155512 | 15 | 204 | 3.2 | 9.7 | 0.00 | 0.84 | 0.20 | 45 | 1005.4 |
| 20260507155011 | 15 | 250 | 1.6 | 8.0 | 0.00 | 0.84 | 0.20 | 50 | 1005.4 |
| 20260507154526 | 15 | 259 | 3.2 | 9.7 | 0.00 | 0.84 | 0.20 | 50 | 1005.4 |
| 20260507154011 | 15 | 300 | 0.0 | 9.7 | 0.00 | 0.84 | 0.20 | 50 | 1005.4 |
| 20260507153508 | 15 | 253 | 3.2 | 8.0 | 0.00 | 0.84 | 0.20 | 49 | 1005.5 |
| 20260507153025 | 15 | 257 | 4.8 | 8.0 | 0.00 | 0.84 | 0.20 | 45 | 1005.6 |
| 20260507152511 | 16 | 248 | 1.6 | 11.3 | 0.00 | 0.84 | 0.20 | 47 | 1005.6 |
| 20260507152013 | 16 | 223 | 1.6 | 11.3 | 0.00 | 0.84 | 0.20 | 48 | 1005.5 |
| 20260507151527 | 16 | 208 | 6.4 | 16.1 | 0.00 | 0.84 | 0.20 | 41 | 1005.6 |
| 20260507151008 | 16 | 225 | 4.8 | 16.1 | 0.00 | 0.84 | 0.20 | 44 | 1005.6 |
| 20260507150508 | 15 | 221 | 8.0 | 16.1 | 0.00 | 0.84 | 0.20 | 45 | 1005.6 |
| 20260507150022 | 15 | 319 | 3.2 | 9.7 | 0.00 | 0.84 | 0.20 | 49 | 1005.6 |
| 20260507145511 | 15 | 269 | 1.6 | 6.4 | 0.00 | 0.84 | 0.20 | 52 | 1005.5 |
| 20260507145010 | 15 | 244 | 1.6 | 9.7 | 0.00 | 0.84 | 0.20 | 54 | 1005.5 |
| 20260507144540 | 15 | 326 | 3.2 | 9.7 | 0.00 | 0.84 | 0.20 | 50 | 1005.7 |
| 20260507144009 | 15 | 289 | 1.6 | 12.9 | 0.00 | 0.84 | 0.20 | 51 | 1005.6 |
| 20260507143507 | 15 | 212 | 6.4 | 12.9 | 0.00 | 0.84 | 0.20 | 52 | 1005.6 |
| 20260507143026 | 14 | 41 | 0.0 | 9.7 | 0.00 | 0.84 | 0.20 | 56 | 1005.6 |
| 20260507142509 | 13 | 219 | 1.6 | 11.3 | 0.00 | 0.84 | 0.20 | 56 | 1005.7 |
| 20260507142010 | 14 | 257 | 1.6 | 11.3 | 0.00 | 0.84 | 0.20 | 55 | 1005.8 |
| 20260507141528 | 15 | 266 | 1.6 | 9.7 | 0.00 | 0.84 | 0.20 | 62 | 1005.9 |
| 20260507141012 | 14 | 44 | 3.2 | 9.7 | 0.00 | 0.84 | 0.20 | 57 | 1006.0 |
| 20260507140513 | 14 | 182 | 1.6 | 8.0 | 0.00 | 0.84 | 0.20 | 55 | 1005.9 |
| 20260507140032 | 13 | 237 | 1.6 | 8.0 | 0.00 | 0.84 | 0.20 | 56 | 1006.1 |
| 20260507135507 | 13 | 311 | 1.6 | 8.0 | 0.00 | 0.84 | 0.20 | 59 | 1006.1 |
| 20260507135009 | 13 | 340 | 3.2 | 8.0 | 0.00 | 0.84 | 0.20 | 56 | 1006.1 |
| 20260507134523 | 13 | 307 | 0.0 | 6.4 | 0.00 | 0.84 | 0.20 | 59 | 1006.1 |
| 20260507134010 | 13 | 21 | 1.6 | 6.4 | 0.00 | 0.84 | 0.20 | 61 | 1006.2 |
| 20260507133509 | 13 | 18 | 1.6 | 6.4 | 0.00 | 0.84 | 0.20 | 61 | 1006.1 |
| 20260507133024 | 13 | 356 | 1.6 | 6.4 | 0.00 | 0.84 | 0.20 | 60 | 1006.2 |
| 20260507132508 | 13 | 282 | 0.0 | 4.8 | 0.00 | 0.84 | 0.20 | 62 | 1006.2 |
| 20260507132010 | 13 | 259 | 3.2 | 8.0 | 0.00 | 0.84 | 0.20 | 62 | 1006.3 |
| 20260507131529 | 13 | 4 | 3.2 | 8.0 | 0.00 | 0.84 | 0.20 | 60 | 1006.3 |
| 20260507131010 | 13 | 224 | 1.6 | 8.0 | 0.00 | 0.84 | 0.20 | 61 | 1006.2 |
| 20260507130511 | 13 | 212 | 1.6 | 8.0 | 0.00 | 0.84 | 0.20 | 63 | 1006.3 |
| 20260507130032 | 12 | 236 | 1.6 | 6.4 | 0.00 | 0.84 | 0.20 | 64 | 1006.2 |
| 20260507125513 | 12 | 171 | 1.6 | 6.4 | 0.00 | 0.84 | 0.20 | 64 | 1006.4 |
| 20260507125011 | 12 | 360 | 1.6 | 6.4 | 0.00 | 0.84 | 0.20 | 62 | 1006.4 |
| 20260507124520 | 12 | 212 | 0.0 | 1.6 | 0.00 | 0.84 | 0.20 | 66 | 1006.4 |
| 20260507124010 | 12 | 252 | 0.0 | 8.0 | 0.00 | 0.84 | 0.20 | 64 | 1006.4 |
| 20260507123512 | 12 | 331 | 0.0 | 8.0 | 0.00 | 0.84 | 0.20 | 69 | 1006.5 |
| 20260507123032 | 11 | 342 | 0.0 | 6.4 | 0.00 | 0.84 | 0.20 | 67 | 1006.5 |
| 20260507122507 | 11 | 311 | 3.2 | 6.4 | 0.00 | 0.84 | 0.20 | 65 | 1006.4 |
| 20260507122012 | 11 | 6 | 1.6 | 3.2 | 0.00 | 0.84 | 0.20 | 68 | 1006.5 |
| 20260507121524 | 11 | 31 | 1.6 | 4.8 | 0.00 | 0.84 | 0.20 | 72 | 1006.4 |
| 20260507121011 | 11 | 19 | 1.6 | 4.8 | 0.00 | 0.84 | 0.20 | 70 | 1006.3 |
| 20260507120510 | 11 | 346 | 3.2 | 4.8 | 0.00 | 0.84 | 0.20 | 72 | 1006.4 |
| 20260507120026 | 11 | 279 | 0.0 | 1.6 | 0.00 | 0.84 | 0.20 | 74 | 1006.4 |
| 20260507115511 | 10 | 108 | 0.0 | 1.6 | 0.00 | 0.84 | 0.20 | 79 | 1006.6 |
| 20260507115012 | 10 | 246 | 0.0 | 3.2 | 0.00 | 0.84 | 0.20 | 78 | 1006.6 |
| 20260507114528 | 9 | 270 | 0.0 | 3.2 | 0.00 | 0.84 | 0.20 | 80 | 1006.5 |
| 20260507114011 | 9 | 293 | 0.0 | 0.0 | 0.00 | 0.84 | 0.20 | 83 | 1006.4 |
| 20260507113509 | 8 | 293 | 0.0 | 1.6 | 0.00 | 0.84 | 0.20 | 85 | 1006.5 |
| 20260507113027 | 8 | 293 | 0.0 | 1.6 | 0.00 | 0.84 | 0.20 | 83 | 1006.5 |
| 20260507112511 | 8 | 280 | 0.0 | 3.2 | 0.00 | 0.84 | 0.20 | 85 | 1006.5 |
| 20260507112012 | 8 | 279 | 0.0 | 3.2 | 0.00 | 0.84 | 0.20 | 84 | 1006.6 |
| 20260507111523 | 8 | 150 | 0.0 | 1.6 | 0.00 | 0.84 | 0.20 | 84 | 1006.6 |
| 20260507111010 | 8 | 276 | 0.0 | 1.6 | 0.00 | 0.84 | 0.20 | 85 | 1006.7 |
| 20260507110510 | 8 | 326 | 0.0 | 1.6 | 0.00 | 0.84 | 0.20 | 85 | 1006.8 |
| 20260507110030 | 8 | 223 | 0.0 | 1.6 | 0.00 | 0.84 | 0.20 | 86 | 1006.9 |
| 20260507105509 | 8 | 248 | 0.0 | 1.6 | 0.00 | 0.84 | 0.20 | 85 | 1006.9 |
| 20260507105012 | 8 | 190 | 0.0 | 1.6 | 0.00 | 0.84 | 0.20 | 85 | 1006.4 |
| 20260507104528 | 8 | 190 | 0.0 | 1.6 | 0.00 | 0.84 | 0.20 | 85 | 1006.5 |
| 20260507104011 | 8 | 190 | 0.0 | 1.6 | 0.00 | 0.84 | 0.20 | 86 | 1007.0 |
| 20260507103511 | 8 | 190 | 0.0 | 1.6 | 0.00 | 0.84 | 0.20 | 87 | 1007.2 |
| 20260507103027 | 8 | 4 | 0.0 | 1.6 | 0.00 | 0.84 | 0.20 | 86 | 1006.6 |
| 20260507102508 | 7 | 5 | 0.0 | 1.6 | 0.00 | 0.84 | 0.20 | 87 | 1006.7 |
| 20260507102010 | 7 | 205 | 0.0 | 0.0 | 0.00 | 0.84 | 0.20 | 87 | 1006.8 |
| 20260507101526 | 7 | 185 | 0.0 | 0.0 | 0.00 | 0.84 | 0.20 | 88 | 1006.6 |
| 20260507101010 | 7 | 157 | 0.0 | 0.0 | 0.00 | 0.84 | 0.20 | 88 | 1006.5 |
| 20260507100513 | 7 | 157 | 0.0 | 0.0 | 0.00 | 0.84 | 0.20 | 87 | 1006.6 |
| 20260507100024 | 7 | 157 | 0.0 | 0.0 | 0.00 | 0.84 | 0.20 | 87 | 1006.6 |
| 20260507095506 | 7 | 158 | 0.0 | 0.0 | 0.00 | 0.84 | 0.20 | 87 | 1006.6 |
| 20260507095004 | 7 | 158 | 0.0 | 0.0 | 0.00 | 0.84 | 0.20 | 87 | 1006.5 |
| 20260507094510 | 8 | 158 | 0.0 | 0.0 | 0.00 | 0.84 | 0.20 | 87 | 1006.3 |
| 20260507094006 | 8 | 46 | 0.0 | 0.0 | 0.00 | 0.84 | 0.20 | 86 | 1006.2 |
| 20260507093506 | 8 | 46 | 0.0 | 1.6 | 0.00 | 0.84 | 0.20 | 86 | 1006.0 |
| 20260507093014 | 8 | 3 | 0.0 | 1.6 | 0.00 | 0.84 | 0.20 | 86 | 1006.4 |
| 20260507092512 | 8 | 298 | 0.0 | 3.2 | 0.00 | 0.84 | 0.20 | 84 | 1006.2 |
| 20260507092011 | 8 | 340 | 0.0 | 3.2 | 0.00 | 0.84 | 0.20 | 84 | 1005.7 |
| 20260507091520 | 8 | 276 | 0.0 | 3.2 | 0.00 | 0.84 | 0.20 | 84 | 1006.0 |
| 20260507091009 | 8 | 69 | 0.0 | 1.6 | 0.00 | 0.84 | 0.20 | 85 | 1005.9 |
| 20260507090509 | 8 | 271 | 0.0 | 4.8 | 0.00 | 0.84 | 0.20 | 84 | 1006.1 |
| 20260507090024 | 8 | 296 | 0.0 | 4.8 | 0.00 | 0.84 | 0.20 | 84 | 1006.3 |
| 20260507085507 | 8 | 285 | 0.0 | 4.8 | 0.00 | 0.84 | 0.20 | 84 | 1006.1 |
| 20260507085010 | 8 | 8 | 0.0 | 4.8 | 0.00 | 0.84 | 0.20 | 85 | 1006.1 |
| 20260507084528 | 8 | 23 | 0.0 | 6.4 | 0.00 | 0.84 | 0.20 | 85 | 1006.0 |
| 20260507084005 | 8 | 300 | 1.6 | 6.4 | 0.00 | 0.84 | 0.20 | 85 | 1006.4 |
| 20260507083507 | 8 | 309 | 0.0 | 3.2 | 0.00 | 0.84 | 0.20 | 85 | 1006.4 |
| 20260507083011 | 8 | 6 | 0.0 | 6.4 | 0.00 | 0.84 | 0.20 | 85 | 1006.4 |
| 20260507082507 | 8 | 300 | 1.6 | 6.4 | 0.00 | 0.84 | 0.20 | 85 | 1006.2 |
| 20260507082009 | 8 | 302 | 1.6 | 8.0 | 0.00 | 0.84 | 0.20 | 86 | 1005.9 |
| 20260507081529 | 9 | 298 | 0.0 | 11.3 | 0.00 | 0.84 | 0.20 | 86 | 1005.6 |
| 20260507081009 | 9 | 319 | 1.6 | 11.3 | 0.00 | 0.84 | 0.20 | 86 | 1005.8 |
| 20260507080511 | 9 | 274 | 3.2 | 6.4 | 0.00 | 0.84 | 0.20 | 87 | 1005.6 |
| 20260507080023 | 9 | 309 | 0.0 | 1.6 | 0.00 | 0.84 | 0.20 | 88 | 1006.0 |
| 20260507075509 | 9 | 261 | 0.0 | 1.6 | 0.00 | 0.84 | 0.20 | 89 | 1006.1 |
| 20260507075009 | 9 | 254 | 0.0 | 4.8 | 0.00 | 0.84 | 0.20 | 89 | 1005.8 |
| 20260507074525 | 9 | 233 | 0.0 | 4.8 | 0.00 | 0.84 | 0.20 | 90 | 1005.9 |
| 20260507074011 | 9 | 279 | 0.0 | 4.8 | 0.00 | 0.84 | 0.20 | 90 | 1005.6 |
| 20260507073509 | 9 | 277 | 0.0 | 3.2 | 0.00 | 0.84 | 0.20 | 91 | 1005.6 |
| 20260507073025 | 9 | 297 | 0.0 | 1.6 | 0.00 | 0.84 | 0.20 | 92 | 1005.7 |
| 20260507072507 | 9 | 4 | 0.0 | 1.6 | 0.00 | 0.84 | 0.20 | 92 | 1005.6 |
| 20260507072006 | 9 | 292 | 0.0 | 3.2 | 0.00 | 0.84 | 0.20 | 92 | 1005.6 |
| 20260507071515 | 9 | 292 | 0.0 | 3.2 | 0.00 | 0.84 | 0.20 | 92 | 1005.4 |
| 20260507071007 | 9 | 4 | 0.0 | 1.6 | 0.00 | 0.84 | 0.20 | 93 | 1005.2 |
| 20260507070512 | 9 | 4 | 0.0 | 1.6 | 0.00 | 0.84 | 0.20 | 93 | 1005.5 |
| 20260507070018 | 9 | 4 | 0.0 | 1.6 | 0.00 | 0.84 | 0.20 | 93 | 1005.4 |
| 20260507065514 | 9 | 326 | 0.0 | 0.0 | 0.00 | 0.84 | 0.20 | 93 | 1005.3 |
| 20260507065009 | 9 | 326 | 0.0 | 0.0 | 0.00 | 0.84 | 0.20 | 93 | 1005.4 |
| 20260507064522 | 9 | 326 | 0.0 | 0.0 | 0.00 | 0.84 | 0.20 | 93 | 1005.3 |
| 20260507064012 | 10 | 326 | 0.0 | 0.0 | 0.00 | 0.84 | 0.20 | 93 | 1005.2 |
| 20260507063511 | 9 | 326 | 0.0 | 0.0 | 0.00 | 0.84 | 0.20 | 93 | 1005.0 |
| 20260507063026 | 10 | 326 | 0.0 | 0.0 | 0.00 | 0.84 | 0.20 | 93 | 1004.9 |
| 20260507062508 | 10 | 326 | 0.0 | 0.0 | 0.00 | 0.84 | 0.20 | 93 | 1005.0 |
| 20260507062015 | 10 | 326 | 0.0 | 0.0 | 0.00 | 0.84 | 0.20 | 92 | 1005.1 |
| 20260507061529 | 10 | 326 | 0.0 | 0.0 | 0.00 | 0.84 | 0.20 | 92 | 1005.0 |
| 20260507061006 | 10 | 326 | 0.0 | 0.0 | 0.00 | 0.84 | 0.20 | 92 | 1004.7 |
| 20260507060507 | 10 | 326 | 0.0 | 1.6 | 0.03 | 0.84 | 0.20 | 92 | 1004.7 |
| 20260507060018 | 10 | 326 | 0.0 | 1.6 | 0.03 | 0.84 | 0.20 | 92 | 1004.8 |
| 20260507055503 | 10 | 345 | 0.0 | 1.6 | 0.03 | 0.84 | 0.20 | 92 | 1005.0 |
| 20260507055003 | 10 | 292 | 0.0 | 1.6 | 0.03 | 0.84 | 0.20 | 92 | 1004.9 |
| 20260507054504 | 10 | 251 | 0.0 | 1.6 | 0.03 | 0.84 | 0.20 | 91 | 1004.7 |
| 20260507054004 | 10 | 331 | 0.0 | 1.6 | 0.03 | 0.84 | 0.20 | 91 | 1004.6 |
| 20260507053502 | 10 | 329 | 0.0 | 6.4 | 0.03 | 0.84 | 0.20 | 90 | 1004.6 |
| 20260507053006 | 10 | 350 | 0.0 | 6.4 | 0.03 | 0.84 | 0.20 | 90 | 1004.9 |
| 20260507052503 | 10 | 261 | 3.2 | 6.4 | 0.03 | 0.84 | 0.20 | 89 | 1004.8 |
| 20260507052004 | 10 | 280 | 1.6 | 8.0 | 0.05 | 0.84 | 0.20 | 89 | 1004.9 |
| 20260507051508 | 10 | 354 | 1.6 | 9.7 | 0.13 | 0.84 | 0.20 | 89 | 1005.0 |
| 20260507051004 | 11 | 303 | 4.8 | 11.3 | 0.15 | 0.84 | 0.20 | 88 | 1004.7 |
| 20260507050506 | 11 | 286 | 6.4 | 11.3 | 0.15 | 0.81 | 0.18 | 88 | 1004.5 |
| 20260507050013 | 11 | 5 | 4.8 | 11.3 | 0.18 | 0.81 | 0.18 | 89 | 1004.8 |
| 20260507045510 | 11 | 255 | 4.8 | 11.3 | 0.18 | 0.81 | 0.18 | 90 | 1004.6 |
| 20260507045010 | 12 | 314 | 3.2 | 9.7 | 0.18 | 0.81 | 0.18 | 91 | 1004.6 |
| 20260507044519 | 12 | 318 | 4.8 | 8.0 | 0.18 | 0.81 | 0.18 | 92 | 1004.2 |
| 20260507044002 | 12 | 312 | 1.6 | 6.4 | 0.18 | 0.81 | 0.18 | 95 | 1004.1 |
| 20260507043502 | 12 | 12 | 3.2 | 6.4 | 0.18 | 0.81 | 0.18 | 95 | 1003.9 |
| 20260507043004 | 12 | 222 | 0.0 | 1.6 | 0.18 | 0.81 | 0.18 | 94 | 1003.9 |
| 20260507042502 | 12 | 222 | 0.0 | 6.4 | 0.18 | 0.81 | 0.18 | 94 | 1003.9 |
| 20260507042003 | 12 | 222 | 0.0 | 6.4 | 0.15 | 0.79 | 0.15 | 95 | 1003.8 |
| 20260507041515 | 12 | 212 | 3.2 | 6.4 | 0.08 | 0.71 | 0.08 | 95 | 1004.0 |
| 20260507041003 | 12 | 238 | 3.2 | 9.7 | 0.05 | 0.69 | 0.05 | 96 | 1004.0 |
| 20260507040506 | 11 | 222 | 3.2 | 9.7 | 0.05 | 0.66 | 0.03 | 95 | 1004.0 |
| 20260507040011 | 11 | 215 | 3.2 | 8.0 | 0.03 | 0.64 | 0.00 | 95 | 1004.2 |
| 20260507035506 | 11 | 242 | 4.8 | 8.0 | 0.03 | 0.64 | 0.64 | 95 | 1003.9 |
| 20260507035009 | 11 | 200 | 1.6 | 6.4 | 0.03 | 0.64 | 0.64 | 95 | 1003.8 |
| 20260507034516 | 11 | 200 | 1.6 | 6.4 | 0.03 | 0.64 | 0.64 | 95 | 1003.8 |
| 20260507034006 | 11 | 245 | 1.6 | 4.8 | 0.03 | 0.64 | 0.64 | 95 | 1003.8 |
| 20260507033507 | 11 | 210 | 1.6 | 4.8 | 0.03 | 0.64 | 0.64 | 95 | 1003.6 |
| 20260507033020 | 11 | 191 | 0.0 | 4.8 | 0.03 | 0.64 | 0.64 | 95 | 1003.6 |
| 20260507032504 | 11 | 222 | 1.6 | 4.8 | 0.03 | 0.64 | 0.64 | 95 | 1003.6 |
| 20260507032002 | 11 | 229 | 0.0 | 4.8 | 0.03 | 0.64 | 0.64 | 95 | 1003.6 |
| 20260507031504 | 11 | 191 | 1.6 | 6.4 | 0.03 | 0.64 | 0.64 | 95 | 1003.6 |
| 20260507031005 | 11 | 242 | 0.0 | 8.0 | 0.03 | 0.64 | 0.64 | 95 | 1003.6 |
| 20260507030502 | 11 | 247 | 1.6 | 8.0 | 0.00 | 0.61 | 0.61 | 95 | 1003.6 |
| 20260507030009 | 11 | 203 | 3.2 | 8.0 | 0.00 | 0.61 | 0.61 | 95 | 1003.7 |